Date String (YYYY-MM-DD hh:mm:ss) UTC,Instrument flags,Ambient pressure (hPa),Sample flow (lpm),Bypass flow (lpm),Sample temperature (°C),Ambient temperature (°C),ASC tube jacket temperature (°C),LED temperature (°C),Box temperature (°C),Sample RH (%),Span deviation,Mass concentration (μg/m³),Mass concentration (μg/m³),Mass concentration (μg/m³)
DateTimeUTC,F1_M11,P_M11,Q1_M11,Q2_M11,T1_M11,T2_M11,T3_M11,T4_M11,T5_M11,U1_M11,ZSPAN_M11,X0_M11,X2_M11,X1_M11
2022-10-20 07:00:00,,0831.7,5.00,0.00,29.4,27.6,00.0,38.3,31.1,07.4,0000.0,0009.98,0004.06,0003.27
2022-10-20 07:01:00,,0831.7,5.00,0.00,29.4,27.6,00.0,38.3,31.2,07.5,0000.0,0010.52,0004.06,0003.26
2022-10-20 07:02:00,,0831.7,5.00,0.00,29.3,27.6,00.0,38.3,31.1,07.5,0000.0,0010.61,0004.05,0003.25
2022-10-20 07:03:00,,0831.7,5.01,0.00,29.3,27.6,00.0,38.3,31.1,07.5,0000.0,0010.76,0004.02,0003.23
2022-10-20 07:04:00,,0831.7,5.00,0.00,29.3,27.6,00.0,38.3,31.1,07.4,0000.0,0011.39,0004.08,0003.22
2022-10-20 07:05:00,,0831.7,4.99,0.00,29.3,27.6,00.0,38.3,31.1,07.4,0000.0,0011.84,0004.15,0003.21
2022-10-20 07:06:00,,0831.6,5.01,0.00,29.3,27.6,00.0,38.3,31.0,07.5,0000.0,0011.91,0004.16,0003.21
2022-10-20 07:07:00,,0831.6,4.99,0.00,29.3,27.6,00.0,38.3,31.0,07.5,0000.0,0012.45,0004.15,0003.18
2022-10-20 07:08:00,,0831.6,5.00,0.00,29.3,27.6,00.0,38.2,31.0,07.5,0000.0,0012.79,0004.10,0003.19
2022-10-20 07:09:00,,0831.6,5.01,0.00,29.3,27.5,00.0,38.2,31.1,07.5,0000.0,0012.56,0004.08,0003.18
2022-10-20 07:10:00,,0831.5,4.99,0.00,29.3,27.6,00.0,38.2,31.1,07.5,0000.0,0013.06,0004.04,0003.17
2022-10-20 07:11:00,,0831.5,5.00,0.00,29.3,27.5,00.0,38.2,31.0,07.5,0000.0,0013.74,0004.03,0003.17
2022-10-20 07:12:00,,0831.5,5.00,0.00,29.3,27.5,00.0,38.2,31.0,07.5,0000.0,0013.75,0004.03,0003.16
2022-10-20 07:13:00,,0831.5,4.99,0.00,29.3,27.5,00.0,38.2,31.0,07.5,0000.0,0013.38,0004.05,0003.16
2022-10-20 07:14:00,,0831.5,5.00,0.00,29.2,27.5,00.0,38.2,31.0,07.5,0000.0,0013.06,0004.08,0003.16
2022-10-20 07:15:00,,0831.5,5.01,0.00,29.2,27.5,00.0,38.2,31.0,07.5,0000.0,0012.56,0004.05,0003.15
2022-10-20 07:16:00,,0831.5,5.00,0.00,29.2,27.5,00.0,38.2,30.9,07.5,0000.0,0011.91,0003.99,0003.15
2022-10-20 07:17:00,,0831.5,5.01,0.00,29.2,27.5,00.0,38.2,30.9,07.5,0000.0,0012.39,0003.98,0003.16
2022-10-20 07:18:00,,0831.5,4.99,0.00,29.2,27.5,00.0,38.2,31.0,07.5,0000.0,0012.09,0003.95,0003.17
2022-10-20 07:19:00,,0831.4,5.00,0.00,29.2,27.4,00.0,38.2,31.0,07.5,0000.0,0013.24,0003.94,0003.16
2022-10-20 07:20:00,,0831.5,5.00,0.00,29.2,27.4,00.0,38.1,30.9,07.5,0000.0,0013.75,0003.94,0003.15
2022-10-20 07:21:00,,0831.4,5.00,0.00,29.2,27.4,00.0,38.1,30.9,07.6,0000.0,0012.95,0003.93,0003.14
2022-10-20 07:22:00,,0831.5,5.01,0.00,29.2,27.4,00.0,38.1,30.9,07.6,0000.0,0012.52,0003.91,0003.13
2022-10-20 07:23:00,,0831.4,4.99,0.00,29.2,27.4,00.0,38.1,30.9,07.6,0000.0,0011.94,0003.91,0003.13
2022-10-20 07:24:00,,0831.4,5.00,0.00,29.2,27.4,00.0,38.1,30.9,07.6,0000.0,0011.70,0003.91,0003.13
2022-10-20 07:25:00,,0831.4,5.00,0.00,29.1,27.4,00.0,38.1,30.9,07.6,0000.0,0011.74,0003.87,0003.12
2022-10-20 07:26:00,,0831.4,5.00,0.00,29.1,27.4,00.0,38.1,30.9,07.6,0000.0,0012.44,0003.85,0003.11
2022-10-20 07:27:00,,0831.4,4.99,0.00,29.1,27.4,00.0,38.1,30.8,07.6,0000.0,0013.71,0003.85,0003.09
2022-10-20 07:28:00,,0831.3,5.00,0.00,29.1,27.3,00.0,38.1,30.8,07.6,0000.0,0013.01,0003.84,0003.09
2022-10-20 07:29:00,,0831.3,4.99,0.00,29.1,27.3,00.0,38.1,30.9,07.6,0000.0,0012.76,0003.85,0003.08
2022-10-20 07:30:00,,0831.3,5.00,0.00,29.1,27.3,00.0,38.1,30.9,07.6,0000.0,0011.40,0003.85,0003.07
2022-10-20 07:31:00,,0831.2,5.02,0.00,29.1,27.3,00.0,38.0,30.8,07.6,0000.0,0010.89,0003.83,0003.07
2022-10-20 07:32:00,,0831.2,5.01,0.00,29.1,27.3,00.0,38.0,30.8,07.6,0000.0,0010.94,0003.81,0003.07
2022-10-20 07:33:00,,0831.2,5.00,0.00,29.1,27.3,00.0,38.0,30.8,07.6,0000.0,0010.76,0003.79,0003.07
2022-10-20 07:34:00,,0831.2,5.00,0.00,29.1,27.3,00.0,38.0,30.8,07.6,0000.0,0010.84,0003.80,0003.07
2022-10-20 07:35:00,,0831.2,4.98,0.00,29.1,27.3,00.0,38.0,30.7,07.6,0000.0,0010.85,0003.77,0003.07
2022-10-20 07:36:00,,0831.2,5.01,0.00,29.0,27.3,00.0,38.0,30.7,07.6,0000.0,0010.83,0003.81,0003.07
2022-10-20 07:37:00,,0831.2,5.00,0.00,29.0,27.3,00.0,38.0,30.8,07.6,0000.0,0010.58,0003.77,0003.06
2022-10-20 07:38:00,,0831.2,5.00,0.00,29.0,27.3,00.0,38.0,30.8,07.6,0000.0,0009.48,0003.75,0003.08
2022-10-20 07:39:00,,0831.2,5.01,0.00,29.0,27.3,00.0,38.0,30.7,07.6,0000.0,0010.56,0003.76,0003.07
2022-10-20 07:40:00,,0831.2,5.00,0.00,29.0,27.3,00.0,38.0,30.8,07.6,0000.0,0011.01,0003.77,0003.08
2022-10-20 07:41:00,,0831.2,5.00,0.00,29.0,27.3,00.0,38.0,30.7,07.6,0000.0,0011.47,0003.80,0003.09
2022-10-20 07:42:00,,0831.2,5.00,0.00,29.0,27.2,00.0,38.0,30.7,07.7,0000.0,0011.21,0003.79,0003.08
2022-10-20 07:43:00,,0831.2,4.99,0.00,29.0,27.2,00.0,37.9,30.7,07.7,0000.0,0011.65,0003.82,0003.07
2022-10-20 07:44:00,,0831.1,4.99,0.00,29.0,27.2,00.0,37.9,30.7,07.6,0000.0,0011.74,0003.85,0003.08
2022-10-20 07:45:00,,0831.1,5.02,0.00,29.0,27.2,00.0,37.9,30.7,07.6,0000.0,0011.22,0003.80,0003.07
2022-10-20 07:46:00,,0831.1,5.00,0.00,29.0,27.2,00.0,37.9,30.7,07.6,0000.0,0011.67,0003.81,0003.05
2022-10-20 07:47:00,,0831.1,5.00,0.00,29.0,27.2,00.0,37.9,30.7,07.7,0000.0,0012.03,0003.79,0003.05
2022-10-20 07:48:00,,0831.1,5.00,0.00,29.0,27.2,00.0,37.9,30.7,07.7,0000.0,0011.58,0003.81,0003.04
2022-10-20 07:49:00,,0831.1,4.99,0.00,28.9,27.2,00.0,37.9,30.7,07.7,0000.0,0012.30,0003.83,0003.03
2022-10-20 07:50:00,,0831.1,5.00,0.00,28.9,27.2,00.0,37.9,30.7,07.7,0000.0,0011.80,0003.82,0003.01
2022-10-20 07:51:00,,0831.1,5.00,0.00,28.9,27.2,00.0,37.9,30.7,07.7,0000.0,0011.20,0003.80,0002.99
2022-10-20 07:52:00,,0831.1,5.00,0.00,28.9,27.2,00.0,37.9,30.6,07.7,0000.0,0010.83,0003.78,0002.95
2022-10-20 07:53:00,,0831.1,5.01,0.00,28.9,27.2,00.0,37.9,30.7,07.7,0000.0,0010.59,0003.76,0002.93
2022-10-20 07:54:00,,0831.1,5.01,0.00,28.9,27.2,00.0,37.9,30.7,07.7,0000.0,0010.50,0003.76,0002.92
2022-10-20 07:55:00,,0831.1,5.00,0.00,28.9,27.2,00.0,37.8,30.7,07.7,0000.0,0011.04,0003.74,0002.92
2022-10-20 07:56:00,,0831.1,4.99,0.00,28.9,27.2,00.0,37.8,30.7,07.7,0000.0,0011.05,0003.73,0002.90
2022-10-20 07:57:00,,0831.1,5.01,0.00,28.9,27.2,00.0,37.8,30.7,07.7,0000.0,0010.80,0003.70,0002.90
2022-10-20 07:58:00,,0831.1,5.01,0.00,28.9,27.1,00.0,37.8,30.6,07.7,0000.0,0010.99,0003.69,0002.90
2022-10-20 07:59:00,,0831.1,4.99,0.00,28.8,27.1,00.0,37.8,30.6,07.7,0000.0,0011.21,0003.72,0002.89
